Weather History for McCall, ID

Change the Weather History Date:

Wednesday, November 21, 2012

  Actual Average Record
Temperature  
Mean Temperature 33 °F 26 °F  
Max Temperature 42 °F 34 °F 60 °F (1936)
Min Temperature 24 °F 18 °F -6 °F (1945)
Degree Days  
Heating Degree Days 32 39  
Month to date heating degree days 642 724  
Since 1 July heating degree days 1731 2267  
Cooling Degree Days 0 0  
Month to date cooling degree days 0 0  
Year to date cooling degree days 172 25  
Moisture  
Dew Point 31 °F    
Average Humidity 86    
Maximum Humidity 96    
Minimum Humidity 75    
Precipitation  
Precipitation 1.29 in 0.09 in 1.29 in (2012)
Month to date precipitation 3.13 2.07  
Year to date precipitation 24.66 17.39  
Sea Level Pressure  
Sea Level Pressure 29.87 in    
Wind  
Wind Speed 7 mph (SW)    
Max Wind Speed 25 mph    
Max Gust Speed 32 mph    
Visibility 5 miles    
Events Fog , Rain , Snow , Thunderstorm    
T = Trace of Precipitation, MM = Missing Value Source: NWS Daily Summary

Daily Weather History Graph

Daily Weather History Graph

Search for Another Location

Airport:

Trip Planner

Search our weather history database for the weather conditions in past years. The results will help you decide how hot, cold, wet, or windy it might be!

Date:

Astronomy

Nov. 21, 2012 Rise Set
Actual Time 7:50 AM MST 5:09 PM MST
Civil Twilight 7:18 AM MST 5:42 PM MST
Nautical Twilight 6:42 AM MST 6:18 PM MST
Astronomical Twilight 6:07 AM MST 6:53 PM MST
Moon 1:43 PM MST (11/21) 12:58 AM MST (11/21)
Length of Visible Light 10h 24m
Length of Day
9h 19m
Waxing Gibbous, 62% of the Moon is Illuminated
Nov 21
Waxing Gibbous
Nov 28
Full
Dec 6
Last Quarter
Dec 13
New
Dec 19
First Quarter

Hourly Weather History & Observations

Time (MST) Temp. Windchill Dew Point Humidity Pressure Visibility Wind Dir Wind Speed Gust Speed Precip Events Conditions
12:45 AM 41.0 °F 33.5 °F 37.4 °F 87% 29.77 in 8.0 mi South 13.8 mph 25.3 mph 0.03 in Rain Light Rain
12:51 AM 41.0 °F 30.9 °F 37.9 °F 89% 29.76 in 7.0 mi South 24.2 mph 31.1 mph 0.04 in Rain Light Rain
1:51 AM 41.0 °F 34.3 °F 39.0 °F 93% 29.73 in 5.0 mi SE 11.5 mph 17.3 mph 0.08 in Rain Light Rain
2:05 AM 41.0 °F 35.2 °F 39.2 °F 93% 29.72 in 7.0 mi SSE 9.2 mph - 0.02 in Rain Light Rain
2:19 AM 41.0 °F 34.7 °F 39.2 °F 93% 29.74 in 4.0 mi SW 10.4 mph - 0.04 in Rain Heavy Rain
2:25 AM 41.0 °F 34.7 °F 39.2 °F 93% 29.74 in 4.0 mi SSW 10.4 mph - 0.06 in Rain Light Rain
2:51 AM 37.9 °F 33.5 °F 36.0 °F 93% 29.75 in 4.0 mi WNW 5.8 mph - 0.12 in Rain Rain
3:39 AM 33.8 °F 29.6 °F 32.0 °F 93% 29.75 in 2.5 mi Variable 4.6 mph - 0.09 in Rain Heavy Rain
3:51 AM 34.0 °F - 32.0 °F 92% 29.75 in 6.0 mi Calm Calm - 0.12 in Rain Light Rain
4:51 AM 33.1 °F 27.7 °F 32.0 °F 96% 29.75 in 5.0 mi North 5.8 mph - 0.15 in Rain Rain
5:03 AM 33.8 °F 25.8 °F 32.0 °F 93% 29.76 in 4.0 mi NNW 10.4 mph - 0.02 in Rain , Thunderstorm Rain
5:10 AM 33.8 °F 27.0 °F 32.0 °F 93% 29.76 in 2.0 mi NNW 8.1 mph - 0.13 in Rain , Thunderstorm Heavy Thunderstorms and Rain
5:20 AM 33.8 °F 30.8 °F 32.0 °F 93% 29.75 in 3.0 mi Variable 3.5 mph - 0.17 in Rain , Thunderstorm Heavy Thunderstorms and Rain
5:28 AM 33.8 °F 28.6 °F 32.0 °F 93% 29.76 in 3.0 mi Variable 5.8 mph - 0.20 in Rain Rain
5:36 AM 33.8 °F 30.8 °F 32.0 °F 93% 29.76 in 3.0 mi Variable 3.5 mph - 0.23 in Snow Light Snow
5:47 AM 33.8 °F - 32.0 °F 93% 29.76 in 2.5 mi Calm Calm - 0.27 in Snow Light Snow
5:51 AM 33.1 °F 30.0 °F 32.0 °F 96% 29.77 in 3.0 mi ENE 3.5 mph - 0.28 in Snow Light Snow
6:03 AM 33.8 °F 27.7 °F 30.2 °F 87% 29.76 in 1.8 mi ESE 6.9 mph - 0.04 in Snow Light Snow
6:17 AM 33.8 °F 28.6 °F 32.0 °F 93% 29.77 in 2.5 mi East 5.8 mph - 0.09 in Snow Light Snow
6:24 AM 33.8 °F 27.0 °F 32.0 °F 93% 29.76 in 5.0 mi ENE 8.1 mph - N/A Rain Light Rain
6:29 AM 33.8 °F 26.4 °F 32.0 °F 93% 29.77 in 10.0 mi ENE 9.2 mph - 0.10 in Rain Light Rain
6:51 AM 35.1 °F 28.6 °F 32.0 °F 89% 29.77 in 10.0 mi ENE 8.1 mph - 0.10 in   Overcast
7:51 AM 35.1 °F 24.8 °F 33.1 °F 92% 29.77 in 8.0 mi South 17.3 mph 23.0 mph 0.01 in Rain Light Rain
8:10 AM 35.6 °F 25.5 °F 32.0 °F 87% 29.78 in 5.0 mi SSW 17.3 mph 26.5 mph 0.03 in Rain Rain
8:38 AM 33.8 °F 26.4 °F 32.0 °F 93% 29.79 in 2.0 mi SSW 9.2 mph - 0.11 in Snow Light Snow
8:49 AM 33.8 °F 29.6 °F 32.0 °F 93% 29.79 in 4.0 mi SW 4.6 mph - 0.13 in Snow Light Snow
8:51 AM 34.0 °F 29.8 °F 32.0 °F 92% 29.82 in 4.0 mi SSW 4.6 mph - 0.13 in Snow Light Snow
9:04 AM 33.8 °F 25.8 °F 32.0 °F 93% 29.79 in 2.5 mi South 10.4 mph - 0.02 in Snow Light Snow
9:10 AM 33.8 °F 25.3 °F 32.0 °F 93% 29.81 in 3.0 mi South 11.5 mph - 0.02 in Snow Light Snow
9:13 AM 33.8 °F 26.4 °F 30.2 °F 87% 29.81 in 2.5 mi South 9.2 mph - 0.03 in Snow Light Snow
9:19 AM 33.8 °F 27.7 °F 30.2 °F 87% 29.81 in 1.0 mi SE 6.9 mph - 0.04 in Snow Light Snow
9:26 AM 33.8 °F 25.8 °F 30.2 °F 87% 29.81 in 0.5 mi ESE 10.4 mph - 0.06 in Fog , Snow Snow
9:45 AM 33.8 °F 24.8 °F 30.2 °F 87% 29.82 in 1.0 mi SE 12.7 mph - 0.10 in Snow Light Snow
9:51 AM 33.1 °F 23.9 °F 30.9 °F 92% 29.85 in 1.8 mi SE 12.7 mph - 0.10 in Snow Light Snow
9:54 AM 33.8 °F 24.8 °F 30.2 °F 87% 29.82 in 3.0 mi SE 12.7 mph - 0.00 in Snow Light Snow
10:05 AM 33.8 °F 24.3 °F 30.2 °F 87% 29.83 in 9.0 mi SE 13.8 mph - 0.00 in   Overcast
10:51 AM 35.1 °F 28.6 °F 32.0 °F 89% 29.87 in 10.0 mi SSE 8.1 mph - 0.00 in   Overcast
11:33 AM 35.6 °F 29.9 °F 33.8 °F 93% 29.86 in 10.0 mi WSW 6.9 mph - 0.00 in Rain Light Rain
11:51 AM 35.1 °F 27.4 °F 32.0 °F 89% 29.88 in 10.0 mi West 10.4 mph - 0.01 in Rain Light Rain
11:59 AM 33.8 °F 26.4 °F 32.0 °F 93% 29.87 in 9.0 mi West 9.2 mph - 0.00 in Snow Light Snow
12:07 PM 33.8 °F 25.8 °F 30.2 °F 87% 29.88 in 2.5 mi West 10.4 mph - 0.01 in Snow Light Snow
12:11 PM 33.8 °F 25.3 °F 30.2 °F 87% 29.88 in 1.0 mi West 11.5 mph - 0.01 in Snow Light Snow
12:17 PM 33.8 °F 30.8 °F 30.2 °F 87% 29.87 in 0.8 mi Variable 3.5 mph 17.3 mph 0.02 in Snow Light Snow
12:19 PM 33.8 °F 29.6 °F 30.2 °F 87% 29.87 in 1.0 mi WNW 4.6 mph - 0.02 in Snow Light Snow
12:22 PM 33.8 °F 29.6 °F 32.0 °F 93% 29.87 in 2.0 mi WNW 4.6 mph - 0.03 in Snow Light Snow
12:25 PM 33.8 °F - 32.0 °F 93% 29.87 in 5.0 mi Calm Calm - 0.03 in Snow Light Snow
12:51 PM 34.0 °F 28.0 °F 30.0 °F 85% 29.93 in 7.0 mi SW 6.9 mph - 0.03 in Snow Light Snow
12:56 PM 33.8 °F 26.4 °F 30.2 °F 87% 29.91 in 2.5 mi SW 9.2 mph - 0.00 in Snow Light Snow
1:01 PM 33.8 °F 25.8 °F 30.2 °F 87% 29.91 in 1.0 mi WSW 10.4 mph 17.3 mph 0.00 in Snow Light Snow
1:13 PM 33.8 °F 27.7 °F 28.4 °F 81% 29.90 in 1.8 mi West 6.9 mph - 0.01 in Snow Light Snow
1:18 PM 33.8 °F 27.7 °F 28.4 °F 81% 29.90 in 3.0 mi WSW 6.9 mph - 0.01 in Snow Light Snow
1:34 PM 33.8 °F - 30.2 °F 87% 29.90 in 10.0 mi Calm Calm - 0.01 in   Overcast
1:51 PM 34.0 °F 28.8 °F 30.9 °F 89% 29.93 in 10.0 mi WNW 5.8 mph - 0.01 in   Overcast
2:12 PM 33.8 °F 27.7 °F 30.2 °F 87% 29.92 in 2.0 mi West 6.9 mph - 0.01 in Snow Light Snow
2:16 PM 33.8 °F 30.8 °F 30.2 °F 87% 29.91 in 3.0 mi West 3.5 mph - 0.01 in Snow Light Snow
2:29 PM 33.8 °F 30.8 °F 28.4 °F 81% 29.92 in 5.0 mi SW 3.5 mph - 0.02 in Snow Light Snow
2:35 PM 33.8 °F 30.8 °F 30.2 °F 87% 29.93 in 5.0 mi SW 3.5 mph - 0.02 in Snow Light Snow
2:47 PM 33.8 °F - 30.2 °F 87% 29.91 in 2.5 mi Calm Calm - 0.03 in Snow Light Snow
2:51 PM 34.0 °F - 30.9 °F 89% 29.96 in 3.0 mi Calm Calm - 0.04 in Snow Light Snow
3:47 PM 32.0 °F 21.6 °F 26.6 °F 80% 29.96 in 1.5 mi WNW 15.0 mph 28.8 mph 0.00 in Snow Light Snow
3:51 PM 30.0 °F 16.9 °F 26.1 °F 85% 30.03 in 0.5 mi WNW 21.9 mph 32.2 mph 0.00 in Fog , Snow Snow
3:54 PM 30.2 °F 18.9 °F 26.6 °F 86% 29.97 in 0.5 mi West 16.1 mph 32.2 mph 0.00 in Fog , Snow Snow
4:10 PM 28.4 °F 18.5 °F 26.6 °F 93% 29.98 in 0.2 mi West 11.5 mph 18.4 mph 0.04 in Fog , Snow Snow
4:23 PM 28.4 °F 24.6 °F 26.6 °F 93% 29.98 in 1.0 mi WNW 3.5 mph - 0.07 in Snow Light Snow
4:26 PM 30.2 °F 25.4 °F 26.6 °F 86% 29.98 in 2.5 mi WNW 4.6 mph - 0.07 in Snow Light Snow
4:32 PM 30.2 °F 25.4 °F 24.8 °F 80% 29.98 in 9.0 mi WNW 4.6 mph - 0.07 in Snow Light Snow
4:51 PM 30.0 °F 26.5 °F 25.0 °F 82% 30.06 in 10.0 mi NE 3.5 mph - 0.07 in   Overcast
5:51 PM 30.0 °F 26.5 °F 24.1 °F 79% 30.08 in 10.0 mi North 3.5 mph - N/A   Clear
6:51 PM 28.0 °F 24.2 °F 25.0 °F 88% 30.10 in 10.0 mi NE 3.5 mph - N/A   Overcast
7:51 PM 27.0 °F - 25.0 °F 92% 30.13 in 10.0 mi Calm Calm - N/A   Overcast
8:51 PM 27.0 °F 23.0 °F 25.0 °F 92% 30.15 in 10.0 mi SSE 3.5 mph - 0.00 in   Overcast
9:51 PM 26.1 °F 20.5 °F 21.9 °F 84% 30.18 in 10.0 mi East 4.6 mph - N/A   Partly Cloudy
10:51 PM 28.0 °F 24.2 °F 21.9 °F 78% 30.19 in 10.0 mi WSW 3.5 mph - 0.00 in   Partly Cloudy
11:51 PM 28.9 °F 18.6 °F 19.9 °F 69% 30.22 in 10.0 mi SW 12.7 mph 19.6 mph N/A   Clear